Regional Weather Roundup
Issued by NWS Northern Indiana

Home | Current Version | Previous Version | Text Only | Print | Product List | Glossary Off
Versions: 1 2 3 4 5 6 7 8 9 10 11 12 13 14 15 16 17 18 19 20 21 22 23 24 25 26 27 28 29 30 31 32 33 34 35 36 37 38 39 40 41 42 43 44 45 46 47 48 49 50

496
ASUS43 KIWX 191410
RWRIWX

KIWX WEATHER ROUNDUP
NATIONAL WEATHER SERVICE NORTHERN INDIANA
1000 AM EDT THU OCT 19 2017

NOTE: "FAIR" INDICATES FEW OR NO CLOUDS BELOW 12,000 FEET WITH NO
SIGNIFICANT WEATHER AND/OR OBSTRUCTIONS TO VISIBILITY.

* THESE STATIONS ARE NOT UNDER NWS QUALITY CONTROL. THEY ALSO MAY NOT
  REPORT WEATHER SUCH AS PRECIPITATION OR FOG.

INZ001>027-191500-
NORTHERN INDIANA

CITY           SKY/WX    TMP DP  RH WIND       PRES   REMARKS
GARY*          MOSUNNY   57  48  72 W9        30.17R
VALPARAISO     SUNNY     56  49  77 W8        30.16R
MICHIGAN CITY* SUNNY     55  48  76 W6        30.16R
LAPORTE*       SUNNY     53  48  83 W6        30.16R
KNOX*          SUNNY     54  46  76 W7        30.16R
SOUTH BEND     SUNNY     52  48  86 SW9       30.16R
ELKHART*       CLOUDY    55  46  71 W8        30.14R
GOSHEN         CLOUDY    55  46  71 SW10      30.14R
MONTICELLO*    SUNNY     56  48  76 SW7       30.17R
LOGANSPORT*    SUNNY     54  48  82 SW9       30.19R
WARSAW*        CLOUDY    55  46  71 W10       30.16R
AUBURN*        CLOUDY    55  46  71 SW10      30.16R
FORT WAYNE     PTSUNNY   58  47  66 SW12      30.16R
HUNTINGTON*    SUNNY     57  48  73 W9        30.17R
PERU/GRISSOM   SUNNY     57  49  76 SW12      30.17R

$$
INZ028>050-191500-
CENTRAL INDIANA

CITY           SKY/WX    TMP DP  RH WIND       PRES   REMARKS
LAFAYETTE      SUNNY     56  50  80 W6        30.18R
KOKOMO*        SUNNY     58  49  72 SW13      30.19R
MUNCIE*        SUNNY     60  47  61 SW9       30.19R
INDIANAPOLIS   PTSUNNY   57  48  72 SW6       30.22R

$$
MIZ043>046-050>051-056>058-064>065-071>073-077>080-191500-
SOUTHWEST LOWER MICHIGAN

CITY           SKY/WX    TMP DP  RH WIND       PRES   REMARKS
BATTLE CREEK   CLOUDY    55  49  80 W7        30.13R
BENTON HARBOR  MOSUNNY   60  46  59 NW7       30.14R
COLDWATER*     CLOUDY    55  47  72 W8        30.13R
HILLSDALE*     MOSUNNY   55  45  67 W8        30.12R
HOLLAND        CLOUDY    61  41  47 NW7       30.12R
GRAND RAPIDS   CLOUDY    59  48  67 W10       30.10R
KALAMAZOO      MOSUNNY   57  48  72 W8        30.14R
STURGIS*       MOSUNNY   55  47  77 W7        30.13R
THREE RIVERS*  FAIR      55  48  76 W3        30.13R

$$
OHZ001>008-015>018-024>025-191500-
NORTHWEST OHIO

CITY           SKY/WX    TMP DP  RH WIND       PRES   REMARKS
WAUSEON*       FAIR      57  50  77 W13G20    30.13S
DEFIANCE       SUNNY     57  47  69 W9        30.15R
FINDLAY        SUNNY     61  46  57 SW9       30.16R
TOLEDO EXPRESS SUNNY     58  49  72 SW15      30.13R
TOLEDO METCALF SUNNY     57  47  69 SW10      30.14R
LIMA           SUNNY     59  48  67 SW12      30.17R

$$
AND FOR LAKE MICHIGAN COASTAL AND OPEN LAKE BUOY OBSERVATIONS

STATION/POSITION TEMP    WIND        PRES    VSBY  WAVE
                 AIR SEA DIR/SP/G                  HT/PER
                 (F)     (DEG/KT/KT) (MB)    (MI)  (FT/S)
CALUMET HARBOR    57     290/  5/  7 1020.5R
MICHIGAN CITY     56     230/ 12/ 13   N/A
BURNS HARBOR      56     240/  7/  9 1021.3R
SAINT JOSEPH      59     320/  9/ 11 1021.0
SOUTH LAKE BUOY   59 60  340/ 12/ 14 1020.5R         3/ 4
4 MI NW BRIDGMAN  60 58  340/ 12/ 16 1021.1          3/ 4
MICHIGAN CITY     57 57  270/  8/ 10   N/A           2/ 3

$$
&&




USA.gov is the U.S. government's official web portal to all federal, state and local government web resources and services.